Date String (YYYY-MM-DD hh:mm:ss) UTC,Instrument flags,absolute air pressure of the measurement (hPa),sample flow rate (lpm),inlet stack bypass flow (lpm),air temperature of the measurement (°C),ambient temperature measured by the external sensor (°C),aerosol sample conditioner tube jacket temperature (°C),OPC LED temperature (°C),internal box temperature (°C),relative humidity of the measurement (%),span deviation,mass concentration of particles derived from Lorenz-Mie calculation of OPC scattering (μg/m³),mass concentration of particles derived from Lorenz-Mie calculation of OPC scattering (μg/m³),mass concentration of particles derived from Lorenz-Mie calculation of OPC scattering (μg/m³)
DateTimeUTC,F1_M11,P_M11,Q1_M11,Q2_M11,T1_M11,T2_M11,T3_M11,T4_M11,T5_M11,U1_M11,ZSPAN_M11,X0_M11,X2_M11,X1_M11
2024-03-24 19:00:00,SystemResetWarning,0807.5,5.00,000.00,022.2,021.6,000.0,030.6,024.0,19.8,0001.1,0019.12,0010.77,0009.35
2024-03-24 19:01:00,SystemResetWarning,0807.4,5.01,000.00,022.2,021.6,000.0,030.6,024.0,19.7,0001.0,0019.17,0010.80,0009.41
2024-03-24 19:02:00,SystemResetWarning,0807.4,5.01,000.00,022.2,021.6,000.0,030.6,024.1,19.4,0000.7,0019.00,0010.84,0009.47
2024-03-24 19:03:00,SystemResetWarning,0807.3,5.00,000.00,022.2,021.6,000.0,030.6,024.1,19.2,0000.7,0018.42,0010.87,0009.52
2024-03-24 19:04:00,SystemResetWarning,0807.3,4.98,000.00,022.2,021.6,000.0,030.7,024.1,19.6,0000.9,0019.42,0010.89,0009.56
2024-03-24 19:05:00,SystemResetWarning,0807.3,5.00,000.00,022.2,021.6,000.0,030.7,024.1,19.1,0001.1,0021.16,0010.89,0009.56
2024-03-24 19:06:00,SystemResetWarning,0807.2,5.01,000.00,022.2,021.6,000.0,030.7,024.1,18.8,0001.1,0020.90,0010.91,0009.55
2024-03-24 19:07:00,SystemResetWarning,0807.2,5.01,000.00,022.3,021.6,000.0,030.7,024.1,19.4,0001.0,0022.67,0010.92,0009.59
2024-03-24 19:08:00,SystemResetWarning,0807.3,5.00,000.00,022.3,021.7,000.0,030.7,024.1,19.4,0000.7,0023.56,0010.96,0009.66
2024-03-24 19:09:00,SystemResetWarning,0807.3,5.00,000.00,022.3,021.7,000.0,030.7,024.1,19.2,0000.6,0024.55,0011.01,0009.73
2024-03-24 19:10:00,SystemResetWarning,0807.3,4.99,000.00,022.3,021.7,000.0,030.7,024.1,19.2,0001.1,0025.62,0011.09,0009.77
2024-03-24 19:11:00,SystemResetWarning,0807.3,5.00,000.00,022.3,021.7,000.0,030.7,024.1,19.1,0001.2,0025.73,0011.02,0009.78
2024-03-24 19:12:00,SystemResetWarning,0807.3,5.00,000.00,022.3,021.7,000.0,030.7,024.2,19.0,0001.0,0025.95,0011.08,0009.79
2024-03-24 19:13:00,SystemResetWarning,0807.3,5.00,000.00,022.3,021.7,000.0,030.7,024.2,19.8,0001.1,0026.14,0011.14,0009.81
2024-03-24 19:14:00,SystemResetWarning,0807.3,5.00,000.00,022.3,021.7,000.0,030.8,024.2,19.4,0001.2,0027.65,0011.24,0009.87
2024-03-24 19:15:00,SystemResetWarning,0807.3,5.01,000.00,022.3,021.7,000.0,030.8,024.2,19.3,0001.6,0027.67,0011.31,0009.90
2024-03-24 19:16:00,SystemResetWarning,0807.3,5.01,000.00,022.3,021.8,000.0,030.8,024.2,19.1,0001.6,0026.86,0011.35,0009.92
2024-03-24 19:17:00,SystemResetWarning,0807.3,4.98,000.00,022.4,021.8,000.0,030.8,024.2,19.1,0001.7,0027.91,0011.38,0009.96
2024-03-24 19:18:00,SystemResetWarning,0807.3,4.99,000.00,022.4,021.8,000.0,030.8,024.2,19.5,0001.7,0025.81,0011.39,0009.94
2024-03-24 19:19:00,SystemResetWarning,0807.3,5.01,000.00,022.4,021.8,000.0,030.8,024.2,19.2,0001.7,0026.57,0011.45,0009.97
2024-03-24 19:20:00,SystemResetWarning,0807.3,5.01,000.00,022.4,021.8,000.0,030.8,024.2,19.2,0002.0,0026.40,0011.57,0010.02
2024-03-24 19:21:00,SystemResetWarning,0807.3,4.98,000.00,022.4,021.8,000.0,030.8,024.2,19.2,0001.3,0026.25,0011.66,0010.10
2024-03-24 19:22:00,SystemResetWarning,0807.3,5.00,000.00,022.4,021.8,000.0,030.8,024.2,19.4,0001.5,0025.92,0011.83,0010.21
2024-03-24 19:23:00,SystemResetWarning,0807.2,5.01,000.00,022.4,021.8,000.0,030.8,024.3,19.7,0001.6,0026.05,0011.92,0010.31
2024-03-24 19:24:00,SystemResetWarning,0807.2,5.01,000.00,022.4,021.8,000.0,030.9,024.3,19.9,0001.9,0027.58,0012.01,0010.41
2024-03-24 19:25:00,SystemResetWarning,0807.2,4.99,000.00,022.4,021.8,000.0,030.9,024.3,19.4,0001.9,0027.05,0012.00,0010.43
2024-03-24 19:26:00,SystemResetWarning,0807.3,5.00,000.00,022.4,021.8,000.0,030.9,024.3,19.5,0001.4,0027.25,0012.05,0010.51
2024-03-24 19:27:00,SystemResetWarning,0807.2,4.99,000.00,022.5,021.8,000.0,030.9,024.3,19.4,0001.3,0027.00,0012.18,0010.63
2024-03-24 19:28:00,SystemResetWarning,0807.3,5.00,000.00,022.5,021.8,000.0,030.9,024.3,19.4,0001.2,0027.35,0012.45,0010.80
2024-03-24 19:29:00,SystemResetWarning,0807.3,5.00,000.00,022.5,021.9,000.0,030.9,024.3,19.7,0001.4,0027.75,0012.58,0010.93
2024-03-24 19:30:00,SystemResetWarning,0807.3,5.00,000.00,022.5,021.9,000.0,030.9,024.3,19.3,0001.8,0027.56,0012.64,0011.01
2024-03-24 19:31:00,SystemResetWarning,0807.2,5.01,000.00,022.5,021.9,000.0,030.9,024.3,19.3,0001.6,0027.01,0012.69,0011.05
2024-03-24 19:32:00,SystemResetWarning,0807.3,5.01,000.00,022.5,021.9,000.0,030.9,024.4,19.4,0001.5,0026.68,0012.68,0011.06
2024-03-24 19:33:00,SystemResetWarning,0807.2,5.00,000.00,022.5,021.9,000.0,030.9,024.4,19.0,0001.6,0027.41,0012.67,0011.06
2024-03-24 19:34:00,SystemResetWarning,0807.2,4.99,000.00,022.5,021.9,000.0,030.9,024.4,19.1,0001.4,0026.94,0012.71,0011.09
2024-03-24 19:35:00,SystemResetWarning,0807.2,5.00,000.00,022.5,021.9,000.0,030.9,024.4,19.2,0001.3,0025.82,0012.79,0011.15
2024-03-24 19:36:00,SystemResetWarning,0807.2,5.00,000.00,022.5,021.9,000.0,031.0,024.4,19.1,0001.6,0025.58,0012.91,0011.24
2024-03-24 19:37:00,SystemResetWarning,0807.2,5.00,000.00,022.6,022.0,000.0,031.0,024.4,19.0,0001.8,0025.86,0012.97,0011.26
2024-03-24 19:38:00,SystemResetWarning,0807.2,5.00,000.00,022.6,022.0,000.0,031.0,024.4,19.9,0001.8,0026.02,0013.02,0011.31
2024-03-24 19:39:00,SystemResetWarning,0807.2,5.00,000.00,022.6,022.0,000.0,031.0,024.4,20.5,0001.6,0025.53,0013.08,0011.45
2024-03-24 19:40:00,SystemResetWarning,0807.2,5.00,000.00,022.6,022.0,000.0,031.0,024.4,20.5,0001.5,0024.96,0013.22,0011.64
2024-03-24 19:41:00,SystemResetWarning,0807.1,5.01,000.00,022.6,022.0,000.0,031.0,024.4,20.1,0001.3,0024.38,0013.40,0011.83
2024-03-24 19:42:00,SystemResetWarning,0807.1,5.00,000.00,022.6,022.0,000.0,031.0,024.4,20.4,0001.4,0024.73,0013.58,0012.04
2024-03-24 19:43:00,SystemResetWarning,0807.1,5.00,000.00,022.6,022.0,000.0,031.0,024.4,20.7,0001.6,0025.35,0013.90,0012.30
2024-03-24 19:44:00,SystemResetWarning,0807.1,5.00,000.00,022.6,022.0,000.0,031.0,024.5,20.6,0001.5,0025.25,0014.22,0012.55
2024-03-24 19:45:00,SystemResetWarning,0807.0,5.00,000.00,022.6,022.0,000.0,031.0,024.5,20.5,0001.4,0026.23,0014.46,0012.74
2024-03-24 19:46:00,SystemResetWarning,0807.1,4.99,000.00,022.6,022.1,000.0,031.1,024.5,20.8,0001.4,0027.09,0014.60,0012.91
2024-03-24 19:47:00,SystemResetWarning,0807.1,5.00,000.00,022.7,022.1,000.0,031.1,024.5,20.6,0001.2,0027.68,0014.78,0013.06
2024-03-24 19:48:00,SystemResetWarning,0807.1,5.00,000.00,022.7,022.1,000.0,031.1,024.5,20.6,0001.0,0026.67,0014.96,0013.27
2024-03-24 19:49:00,SystemResetWarning,0807.1,5.00,000.00,022.7,022.1,000.0,031.1,024.6,20.9,0000.8,0026.82,0015.11,0013.42
2024-03-24 19:50:00,SystemResetWarning,0807.1,5.00,000.00,022.7,022.1,000.0,031.1,024.6,21.0,0001.0,0027.13,0015.20,0013.47
2024-03-24 19:51:00,SystemResetWarning,0807.0,5.00,000.00,022.7,022.2,000.0,031.1,024.6,20.8,0001.1,0027.47,0015.28,0013.52
2024-03-24 19:52:00,SystemResetWarning,0807.0,5.01,000.00,022.7,022.2,000.0,031.1,024.6,20.7,0001.0,0028.30,0015.35,0013.54
2024-03-24 19:53:00,SystemResetWarning,0807.0,5.00,000.00,022.8,022.2,000.0,031.1,024.6,20.3,0001.0,0029.31,0015.37,0013.51
2024-03-24 19:54:00,SystemResetWarning,0807.0,5.01,000.00,022.8,022.2,000.0,031.1,024.6,19.7,0000.9,0028.98,0015.27,0013.43
2024-03-24 19:55:00,SystemResetWarning,0807.0,5.00,000.00,022.8,022.2,000.0,031.2,024.7,19.3,0001.0,0028.46,0015.05,0013.31
2024-03-24 19:56:00,SystemResetWarning,0807.0,4.99,000.00,022.8,022.3,000.0,031.2,024.7,18.9,0001.2,0028.10,0014.82,0013.16
2024-03-24 19:57:00,SystemResetWarning,0807.0,4.99,000.00,022.8,022.3,000.0,031.2,024.7,19.1,0001.4,0027.87,0014.70,0013.03
2024-03-24 19:58:00,SystemResetWarning,0807.0,5.00,000.00,022.8,022.3,000.0,031.2,024.7,18.7,0001.1,0027.03,0014.52,0012.89
2024-03-24 19:59:00,SystemResetWarning,0807.0,5.00,000.00,022.8,022.3,000.0,031.2,024.7,18.5,0001.2,0026.78,0014.32,0012.73
